Home   Weather   Woodbridge Green Park   Past weeks
Flag for USA

Past Weather in Woodbridge Green Park, Ohio, USA — Yesterday and Last 2 Weeks

Now
92 °F

Broken clouds.


Feels Like: 95 °F
Forecast: 90 / 70 °F
Wind: 6 mph from North

Location: John Glenn Columbus International Airport

Current Time: Jul 15, 2019 at 4:59:51 pm

Latest Report: Jul 15, 2019 at 3:51 pm


Visibility: 10 mi

Pressure: 30.03 "Hg

Humidity: 44%

Dew Point: 67 °F

Location of Woodbridge Green ParkLocation

Past Weather in Woodbridge Green Park — Graph

°F

Woodbridge Green Park Temperature Yesterday

Maximum temperature yesterday: 90 °F (at 5:51 pm)
Minimum temperature yesterday: 71 °F (at 2:51 am)
Average temperature yesterday: 80 °F

High & Low Weather Summary for the Past Weeks

 TemperatureHumidityPressure
High93 °F (Jul 2, 2:51 pm)100% (Jul 4, 1:41 am)30.11 "Hg (Jul 4, 1:41 am)
Low64 °F (Jul 9, 3:51 am)28% (Jul 13, 3:51 pm)29.76 "Hg (Jul 11, 5:51 pm)
Average78 °F69%29.96 "Hg
* Reported Jun 30 3:51 pm — Jul 15 3:51 pm, Woodbridge Green Park. Weather by CustomWeather, © 2019

Note: Actual official high and low records may vary slightly from our data, if they occured in-between our weather recording intervals... More about our weather records

Advertising

Woodbridge Green Park Weather History for the Previous 24 Hours

Scroll right to see more
 ConditionsComfort  
Time TempWeatherWind HumidityBarometerVisibility
3:51 pm
Mon, Jul 15
92 °FBroken clouds.6 mph44%30.03 "Hg10 mi
2:51 pm88 °FPartly sunny.6 mph48%30.06 "Hg10 mi
1:51 pm89 °FBroken clouds.3 mph46%30.07 "Hg10 mi
12:51 pm90 °FScattered clouds.5 mph45%30.08 "Hg10 mi
11:51 am88 °FScattered clouds.5 mph50%30.10 "Hg10 mi
10:51 am85 °FPassing clouds.5 mph53%30.11 "Hg10 mi
9:51 am79 °FPassing clouds.No wind67%30.11 "Hg10 mi
8:51 am77 °FScattered clouds.3 mph66%30.11 "Hg10 mi
7:51 am75 °FScattered clouds.No wind66%30.11 "Hg10 mi
6:51 am72 °FScattered clouds.3 mph73%30.09 "Hg10 mi
5:51 am71 °FPartly cloudy.3 mph76%30.09 "Hg10 mi
4:51 am73 °FPartly cloudy.No wind69%30.07 "Hg10 mi
3:51 am73 °FPassing clouds.3 mph74%30.06 "Hg10 mi
2:51 am73 °FPassing clouds.5 mph79%30.06 "Hg10 mi
1:51 am75 °FPassing clouds.6 mph76%30.08 "Hg10 mi
12:51 am78 °FPassing clouds.No wind66%30.08 "Hg10 mi
11:51 pm
Sun, Jul 14
79 °FPassing clouds.No wind65%30.08 "Hg10 mi
10:51 pm79 °FPassing clouds.5 mph67%30.08 "Hg10 mi
9:51 pm82 °FPassing clouds.No wind58%30.09 "Hg10 mi
8:51 pm82 °FPartly sunny.No wind58%30.07 "Hg10 mi
7:51 pm84 °FBroken clouds.7 mph55%30.06 "Hg10 mi
6:51 pm88 °FScattered clouds.8 mph46%30.04 "Hg10 mi
5:51 pm90 °FScattered clouds.9 mph47%30.05 "Hg10 mi
4:51 pm88 °FBroken clouds.12 mph48%30.06 "Hg10 mi
Weather by CustomWeather, © 2019

See weather overview

LIVE PARTIAL LUNAR ECLIPSE – Watch the eclipse as it happens